FW7499 Weather Reports


time (UTC)temp
F
wind
direction
speed
knots
gust
knots
rain 1hr
in
rain 24hr
in
rain mn
in
humidity
%
barometer
mb
20260508060007 54 342 0.0 0.0 0.00 0.00 0.00 56 1009.8
20260508055502 54 342 0.0 0.0 0.00 0.00 0.00 57 1009.7
20260508055007 54 342 0.0 0.0 0.00 0.00 0.00 53 1009.8
20260508054510 54 342 0.0 0.0 0.00 0.00 0.00 57 1009.9
20260508054004 54 342 0.0 0.0 0.00 0.00 0.00 55 1009.8
20260508053503 54 342 0.0 0.0 0.00 0.00 0.00 50 1009.8
20260508053006 53 342 0.0 0.0 0.00 0.00 0.00 54 1009.8
20260508052504 53 342 0.0 0.0 0.00 0.00 0.00 58 1009.7
20260508052008 53 342 0.0 0.0 0.00 0.00 0.00 59 1009.8
20260508051511 53 342 0.0 0.0 0.00 0.00 0.00 57 1009.8
20260508051007 53 342 0.0 0.0 0.00 0.00 0.00 58 1009.8
20260508050503 53 342 0.0 0.0 0.00 0.00 0.00 55 1009.9
20260508050015 53 342 0.0 0.0 0.00 0.00 0.00 56 1009.9
20260508045508 54 342 0.0 0.0 0.00 0.00 0.00 52 1009.9
20260508045004 54 342 0.0 0.0 0.00 0.00 0.00 50 1010.0
20260508044513 54 342 0.0 0.0 0.00 0.00 0.00 52 1010.1
20260508044007 54 342 0.0 0.0 0.00 0.00 0.00 52 1010.1
20260508043503 54 342 0.0 0.0 0.00 0.00 0.00 52 1010.2
20260508043017 53 342 0.0 0.0 0.00 0.00 0.00 54 1010.1
20260508042504 53 342 0.0 0.0 0.00 0.00 0.00 50 1010.1
20260508042007 53 342 0.0 0.0 0.00 0.00 0.00 49 1010.1
20260508041516 53 342 0.0 0.0 0.00 0.00 0.00 50 1010.1
20260508041003 53 342 0.0 0.0 0.00 0.00 0.00 48 1010.1
20260508040507 53 342 0.0 0.0 0.00 0.00 0.00 51 1010.2
20260508040019 54 342 0.0 0.0 0.00 0.00 0.00 51 1010.2
20260508035505 54 342 0.0 0.0 0.00 0.00 0.00 50 1010.2
20260508035006 55 342 0.0 0.0 0.00 0.00 0.00 46 1010.0
20260508034511 55 342 0.0 0.0 0.00 0.00 0.00 45 1009.9
20260508034007 55 342 0.0 0.0 0.00 0.00 0.00 47 1009.9
20260508033506 55 342 0.0 0.0 0.00 0.00 0.00 46 1009.9
20260508033010 56 342 0.0 0.0 0.00 0.00 0.00 44 1010.0
20260508032508 56 342 0.0 0.0 0.00 0.00 0.00 43 1010.1
20260508032004 56 342 0.0 0.0 0.00 0.00 0.00 45 1010.1
20260508031515 56 342 0.0 0.0 0.00 0.00 0.00 44 1010.1
20260508031003 57 342 0.0 0.0 0.00 0.00 0.00 43 1010.1
20260508030503 57 342 0.0 0.0 0.00 0.00 0.00 43 1010.1
20260508030013 57 342 0.0 0.0 0.00 0.00 0.00 44 1010.0
20260508025510 57 342 0.0 0.0 0.00 0.00 0.00 41 1009.9
20260508025009 57 342 0.0 0.0 0.00 0.00 0.00 41 1009.9
20260508024516 58 342 0.0 0.0 0.00 0.00 0.00 40 1009.9
20260508024007 58 342 0.0 0.0 0.00 0.00 0.00 39 1009.9
20260508023507 58 342 0.0 0.0 0.00 0.00 0.00 38 1009.9
20260508023021 59 342 0.0 0.0 0.00 0.00 0.00 39 1009.9
20260508022505 58 342 0.0 0.0 0.00 0.00 0.00 39 1009.9
20260508022006 58 342 0.0 0.0 0.00 0.00 0.00 41 1009.8
20260508021520 59 342 0.0 0.0 0.00 0.00 0.00 42 1009.7
20260508021009 59 342 0.0 0.0 0.00 0.00 0.00 40 1009.6
20260508020506 59 342 0.0 0.0 0.00 0.00 0.00 42 1009.6
20260508020022 59 342 0.0 0.0 0.00 0.00 0.00 39 1009.4
20260508015506 60 342 0.0 0.0 0.00 0.00 0.00 42 1009.4
20260508015006 60 342 0.0 0.0 0.00 0.00 0.00 40 1009.4
20260508014515 60 342 0.0 0.0 0.00 0.00 0.00 38 1009.4
20260508014009 61 342 0.0 0.0 0.00 0.00 0.00 37 1009.4
20260508013511 62 342 0.0 0.0 0.00 0.00 0.00 37 1009.4
20260508013013 63 342 0.0 0.9 0.00 0.00 0.00 35 1009.4
20260508012508 64 342 0.0 0.9 0.00 0.00 0.00 33 1009.2
20260508012010 64 342 0.0 4.3 0.00 0.00 0.00 33 1009.1
20260508011514 65 342 0.9 4.3 0.00 0.00 0.00 30 1009.0
20260508011006 65 342 1.7 4.3 0.00 0.00 0.00 30 1008.9
20260508010507 65 329 0.9 2.6 0.00 0.00 0.00 31 1008.9
20260508010032 66 331 0.0 2.6 0.00 0.00 0.00 32 1008.8
20260508005507 66 352 0.0 3.5 0.00 0.00 0.00 32 1008.8
20260508005006 66 355 0.9 4.3 0.00 0.00 0.00 30 1008.8
20260508004524 66 339 0.0 4.3 0.00 0.00 0.00 31 1008.7
20260508004008 67 323 0.9 2.6 0.00 0.00 0.00 32 1008.7
20260508003506 67 326 0.9 7.0 0.00 0.00 0.00 29 1008.7
20260508003021 67 304 1.7 7.8 0.00 0.00 0.00 28 1008.6
20260508002509 67 339 3.5 7.8 0.00 0.00 0.00 29 1008.6
20260508002011 68 306 2.6 5.2 0.00 0.00 0.00 29 1008.5
20260508001521 68 306 2.6 5.2 0.00 0.00 0.00 30 1008.6
20260508001007 68 342 1.7 5.2 0.00 0.00 0.00 30 1008.5
20260508000508 68 335 1.7 4.3 0.00 0.00 0.00 31 1008.5
20260508000017 69 355 1.7 7.8 0.00 0.00 0.00 28 1008.4
20260507235515 69 304 0.9 7.8 0.00 0.00 0.00 29 1008.4
20260507235006 69 318 2.6 8.7 0.00 0.00 0.00 29 1008.5
20260507234515 69 346 2.6 8.7 0.00 0.00 0.00 28 1008.5
20260507234008 70 305 1.7 7.8 0.00 0.00 0.00 29 1008.4
20260507233508 70 261 3.5 7.8 0.00 0.00 0.00 27 1008.5
20260507233027 71 5 2.6 7.8 0.00 0.00 0.00 26 1008.4
20260507232506 71 314 3.5 7.0 0.00 0.00 0.00 27 1008.4
20260507232007 71 342 1.7 7.8 0.00 0.00 0.00 24 1008.4
20260507231520 71 325 0.9 7.8 0.00 0.00 0.00 28 1008.3
20260507231009 72 312 0.9 7.8 0.00 0.00 0.00 27 1008.4
20260507230507 72 308 2.6 7.0 0.00 0.00 0.00 27 1008.3
20260507230023 72 315 2.6 7.0 0.00 0.00 0.00 28 1008.3
20260507225510 72 301 1.7 7.0 0.00 0.00 0.00 26 1008.3
20260507225007 72 326 0.9 7.8 0.00 0.00 0.00 29 1008.2
20260507224527 72 310 2.6 7.8 0.00 0.00 0.00 30 1008.3
20260507224007 72 314 1.7 7.0 0.00 0.00 0.00 29 1008.3
20260507223510 72 323 0.0 7.0 0.00 0.00 0.00 28 1008.3
20260507223027 72 327 2.6 7.8 0.00 0.00 0.00 28 1008.5
20260507222509 72 294 2.6 7.8 0.00 0.00 0.00 29 1008.5
20260507222007 72 311 3.5 7.8 0.00 0.00 0.00 27 1008.5
20260507221503 72 319 3.5 7.8 0.00 0.00 0.00 29 1008.5
20260507221002 73 331 2.6 7.0 0.00 0.00 0.00 27 1008.5
20260507220502 72 275 0.9 9.6 0.00 0.00 0.00 31 1008.6
20260507220018 72 317 2.6 9.6 0.00 0.00 0.00 29 1008.4
20260507215503 72 319 5.2 9.6 0.00 0.00 0.00 28 1008.5
20260507215003 73 309 2.6 6.1 0.00 0.00 0.00 28 1008.6
20260507214510 72 360 1.7 7.8 0.00 0.00 0.00 31 1008.5
20260507214003 72 319 1.7 7.8 0.00 0.00 0.00 30 1008.6
20260507213503 72 221 0.9 8.7 0.00 0.00 0.00 27 1008.7
20260507213009 72 339 3.5 8.7 0.00 0.00 0.00 29 1008.7
20260507212505 72 340 1.7 7.8 0.00 0.00 0.00 30 1008.7
20260507212003 72 217 2.6 7.8 0.00 0.00 0.00 28 1008.7
20260507211512 72 346 2.6 12.2 0.00 0.00 0.00 27 1008.6
20260507211005 73 315 5.2 12.2 0.00 0.00 0.00 28 1008.8
20260507210514 73 321 2.6 7.8 0.00 0.00 0.00 28 1008.8
20260507210003 73 346 2.6 9.6 0.00 0.00 0.00 30 1008.7
20260507205505 72 314 2.6 9.6 0.00 0.00 0.00 28 1008.8
20260507205007 72 340 5.2 8.7 0.00 0.00 0.00 28 1008.9
20260507204508 73 316 5.2 8.7 0.00 0.00 0.00 32 1008.9
20260507204003 72 11 2.6 10.4 0.00 0.00 0.00 30 1008.9
20260507203503 72 341 3.5 10.4 0.00 0.00 0.00 30 1009.1
20260507203007 72 340 1.7 8.7 0.00 0.00 0.00 32 1009.0
20260507202504 72 296 2.6 9.6 0.00 0.00 0.00 28 1009.1
20260507202004 73 302 3.5 9.6 0.00 0.00 0.00 28 1009.1
20260507201505 73 351 0.9 6.1 0.00 0.00 0.00 29 1009.1
20260507201004 73 296 0.9 7.0 0.00 0.00 0.00 28 1009.2
20260507200504 72 263 0.9 11.3 0.00 0.00 0.00 31 1009.1
20260507200014 73 338 2.6 11.3 0.00 0.00 0.00 32 1009.2
20260507195507 73 302 1.7 7.8 0.00 0.00 0.00 31 1009.0
20260507195003 72 311 3.5 7.8 0.00 0.00 0.00 32 1009.0
20260507194510 72 336 2.6 7.8 0.00 0.00 0.00 34 1009.0
20260507194007 72 346 1.7 8.7 0.00 0.00 0.00 29 1009.0
20260507193509 73 355 0.0 9.6 0.00 0.00 0.00 37 1009.0
20260507193008 73 338 1.7 9.6 0.00 0.00 0.00 36 1009.0
20260507192503 72 321 1.7 9.6 0.00 0.00 0.00 36 1009.0
20260507192003 72 319 0.9 9.6 0.00 0.00 0.00 37 1009.0
20260507191509 73 240 2.6 8.7 0.00 0.00 0.00 35 1009.0
20260507191003 72 322 3.5 8.7 0.00 0.00 0.00 35 1009.0
20260507190508 71 238 1.7 4.3 0.00 0.00 0.00 37 1009.1
20260507190014 71 309 1.7 7.8 0.00 0.00 0.00 34 1009.0
20260507185503 70 69 1.7 7.8 0.00 0.00 0.00 35 1009.1
20260507185006 71 307 2.6 8.7 0.00 0.00 0.00 37 1009.2
20260507184511 71 34 2.6 10.4 0.00 0.00 0.00 38 1009.2
20260507184007 71 298 2.6 10.4 0.00 0.00 0.00 36 1009.2
20260507183502 71 323 2.6 10.4 0.00 0.00 0.00 35 1009.3
20260507183008 70 202 1.7 10.4 0.00 0.00 0.00 34 1009.4
20260507182508 71 301 2.6 7.0 0.00 0.00 0.00 34 1009.4
20260507182011 70 302 1.7 7.0 0.00 0.00 0.00 34 1009.5
20260507181515 70 257 1.7 9.6 0.00 0.00 0.00 41 1009.7
20260507181006 70 292 3.5 9.6 0.00 0.00 0.00 38 1009.6
20260507180506 70 317 3.5 9.6 0.00 0.00 0.00 39 1009.7
20260507180010 69 231 1.7 8.7 0.00 0.00 0.00 36 1009.7
20260507175508 70 300 2.6 8.7 0.00 0.00 0.00 38 1009.7
20260507175006 70 352 2.6 10.4 0.00 0.00 0.00 42 1009.8
20260507174510 68 279 4.3 10.4 0.00 0.00 0.00 39 1009.8
20260507174004 68 352 3.5 7.8 0.00 0.00 0.00 34 1009.9
20260507173505 68 143 1.7 7.0 0.00 0.00 0.00 36 1009.9
20260507173033 69 82 1.7 7.8 0.00 0.00 0.00 38 1009.9
20260507172506 67 261 1.7 8.7 0.00 0.00 0.00 38 1010.1
20260507172006 67 336 3.5 8.7 0.00 0.00 0.00 38 1010.1
20260507171519 67 294 2.6 7.8 0.00 0.00 0.00 37 1010.2
20260507171005 68 279 0.9 7.0 0.00 0.00 0.00 42 1010.2
20260507170507 67 266 1.7 7.0 0.00 0.00 0.00 43 1010.2
20260507170017 67 351 1.7 7.0 0.00 0.00 0.00 41 1010.4
20260507165505 67 122 1.7 10.4 0.00 0.00 0.00 37 1010.4
20260507165006 66 44 2.6 10.4 0.00 0.00 0.00 42 1010.6
20260507164515 65 229 1.7 8.7 0.00 0.00 0.00 40 1010.6
20260507164007 66 247 2.6 8.7 0.00 0.00 0.00 38 1010.7
20260507163507 66 276 2.6 7.8 0.00 0.00 0.00 38 1010.7
20260507163012 66 281 1.7 7.8 0.00 0.00 0.00 39 1010.9
20260507162508 65 318 0.9 4.3 0.00 0.00 0.00 44 1010.8
20260507162006 65 38 0.0 6.1 0.00 0.00 0.00 46 1010.9
20260507161519 64 195 1.7 7.8 0.00 0.00 0.00 45 1010.9
20260507161006 64 212 1.7 7.8 0.00 0.00 0.00 42 1011.0
20260507160506 63 223 1.7 7.0 0.00 0.00 0.00 46 1011.0
20260507160024 63 217 0.9 4.3 0.00 0.00 0.00 45 1011.1
20260507155508 63 305 0.0 4.3 0.00 0.00 0.00 47 1011.2
20260507155009 62 232 1.7 5.2 0.00 0.00 0.00 49 1011.3
20260507154524 61 276 1.7 7.0 0.00 0.00 0.00 52 1011.3
20260507154007 62 281 1.7 7.0 0.00 0.00 0.00 51 1011.4
20260507153504 61 254 0.0 4.3 0.00 0.00 0.00 53 1011.4
20260507153014 61 333 1.7 7.0 0.00 0.00 0.00 53 1011.5
20260507152508 60 263 0.9 7.0 0.00 0.00 0.00 53 1011.5
20260507152006 60 259 0.9 5.2 0.00 0.00 0.00 54 1011.6
20260507151519 59 254 0.9 6.1 0.00 0.00 0.00 58 1011.5
20260507151004 59 281 1.7 6.1 0.00 0.00 0.00 55 1011.6
20260507150509 59 324 0.9 7.8 0.00 0.00 0.00 58 1011.6
20260507150019 58 306 2.6 9.6 0.00 0.00 0.00 57 1011.6
20260507145509 58 260 2.6 9.6 0.00 0.00 0.00 56 1011.7
20260507145007 58 301 1.7 8.7 0.00 0.00 0.00 57 1011.8
20260507144518 58 219 1.7 7.0 0.00 0.00 0.00 59 1011.8
20260507144010 57 319 1.7 6.1 0.00 0.00 0.00 58 1011.8
20260507143505 57 303 1.7 7.0 0.00 0.00 0.00 59 1011.8
20260507143027 55 234 1.7 7.0 0.00 0.00 0.00 60 1011.8
20260507142507 55 243 0.9 5.2 0.00 0.00 0.00 63 1011.9
20260507142012 54 327 0.9 7.0 0.00 0.00 0.00 64 1011.9
20260507141517 55 276 1.7 7.8 0.00 0.00 0.00 63 1012.0
20260507141008 54 63 1.7 7.8 0.00 0.00 0.00 65 1012.0
20260507140507 54 257 0.0 7.0 0.00 0.00 0.00 68 1012.1
20260507140022 54 306 0.9 7.0 0.00 0.00 0.00 66 1012.2
20260507135506 53 305 0.9 6.1 0.00 0.00 0.00 66 1012.2
20260507135005 53 321 0.0 5.2 0.00 0.00 0.00 68 1012.2
20260507134527 52 298 0.0 5.2 0.00 0.00 0.00 69 1012.2
20260507134010 51 263 1.7 7.0 0.00 0.00 0.00 69 1012.2
20260507133506 51 244 1.7 7.0 0.00 0.00 0.00 70 1012.2
20260507133022 51 278 1.7 6.1 0.00 0.00 0.00 71 1012.2
20260507132505 50 127 0.0 7.0 0.00 0.00 0.00 73 1012.1
20260507132012 50 194 0.9 7.8 0.00 0.00 0.00 74 1012.1
20260507131504 49 302 2.6 8.7 0.00 0.00 0.00 74 1012.2
20260507131004 49 336 1.7 8.7 0.00 0.00 0.00 76 1012.3
20260507130508 48 236 2.6 6.1 0.00 0.00 0.00 77 1012.4
20260507130017 48 239 0.9 6.1 0.00 0.00 0.00 78 1012.4
20260507125507 47 300 1.7 7.0 0.00 0.00 0.00 79 1012.5
20260507125004 47 226 0.9 7.0 0.00 0.00 0.00 81 1012.5
20260507124508 47 205 0.9 7.0 0.00 0.00 0.00 80 1012.4
20260507124003 47 5 1.7 7.0 0.00 0.00 0.00 79 1012.5
20260507123503 47 228 1.7 7.8 0.00 0.00 0.00 79 1012.5
20260507123009 47 217 0.0 7.8 0.00 0.00 0.00 79 1012.5
20260507122503 47 283 0.0 6.1 0.00 0.00 0.00 77 1012.5
20260507122008 47 304 0.9 6.1 0.00 0.00 0.00 75 1012.6
20260507121510 47 245 0.0 6.1 0.00 0.00 0.00 75 1012.6
20260507121004 46 213 0.0 7.8 0.00 0.00 0.00 76 1012.6
20260507120508 46 265 0.9 7.8 0.00 0.00 0.00 76 1012.6
20260507120006 46 246 1.7 7.8 0.00 0.00 0.00 77 1012.5
20260507115505 46 297 0.9 3.5 0.00 0.00 0.00 77 1012.5
20260507115010 45 251 0.9 6.1 0.00 0.00 0.00 77 1012.5
20260507114507 45 277 1.7 7.8 0.00 0.00 0.00 76 1012.5
20260507114003 45 303 0.0 7.8 0.00 0.00 0.00 76 1012.5
20260507113504 45 50 0.0 6.1 0.00 0.00 0.00 76 1012.5
20260507113012 45 273 1.7 6.1 0.00 0.00 0.00 76 1012.5
20260507112508 45 285 0.9 7.0 0.00 0.00 0.00 76 1012.5
20260507112004 45 274 1.7 7.0 0.00 0.00 0.00 76 1012.5
20260507111509 45 128 0.0 6.1 0.00 0.00 0.00 76 1012.5
20260507111008 46 238 0.9 6.1 0.00 0.00 0.00 75 1012.5
20260507110503 46 344 0.9 6.1 0.00 0.00 0.00 75 1012.5
20260507110015 46 333 1.7 6.1 0.00 0.00 0.00 75 1012.5
20260507105504 46 252 1.7 6.1 0.00 0.00 0.00 75 1012.5
20260507105004 46 260 0.9 6.1 0.00 0.00 0.00 75 1012.5
20260507104510 46 207 1.7 7.0 0.00 0.00 0.00 75 1012.4
20260507104006 46 257 2.6 7.0 0.00 0.00 0.00 75 1012.5
20260507103508 46 276 0.9 6.1 0.00 0.00 0.00 75 1012.5
20260507103007 46 308 1.7 7.0 0.00 0.00 0.00 75 1012.4
20260507102504 46 306 1.7 7.0 0.00 0.00 0.00 75 1012.3
20260507102008 46 271 0.9 6.1 0.00 0.00 0.00 75 1012.5
20260507101507 46 30 0.0 5.2 0.00 0.00 0.00 75 1012.4
20260507101004 45 218 0.9 5.2 0.00 0.00 0.00 75 1012.5
20260507100506 45 59 0.0 2.6 0.00 0.00 0.00 75 1012.5
20260507100017 46 197 0.0 2.6 0.00 0.00 0.00 74 1012.6
20260507095503 46 179 0.0 4.3 0.00 0.00 0.00 74 1012.7
20260507095011 46 29 0.9 4.3 0.00 0.00 0.00 74 1012.7
20260507094512 46 231 0.0 1.7 0.00 0.00 0.00 73 1012.6
20260507094007 46 89 0.0 2.6 0.00 0.00 0.00 73 1012.8
20260507093505 46 294 0.0 4.3 0.00 0.00 0.00 72 1012.8
20260507093007 46 87 0.0 5.2 0.00 0.00 0.00 72 1012.9
20260507092507 46 249 0.9 5.2 0.00 0.00 0.00 72 1012.9
20260507092009 46 276 0.9 3.5 0.00 0.00 0.00 72 1012.9
20260507091514 46 279 0.0 7.8 0.00 0.00 0.00 71 1012.9
20260507091014 46 167 1.7 7.8 0.00 0.00 0.00 71 1013.0
20260507090504 47 344 0.9 7.8 0.00 0.00 0.00 70 1013.1
20260507090016 46 251 0.9 7.8 0.00 0.00 0.00 70 1013.1
20260507085503 46 246 0.9 3.5 0.00 0.00 0.00 70 1013.2
20260507085007 47 289 0.9 6.1 0.00 0.00 0.00 70 1013.3
20260507084521 47 111 0.0 6.1 0.00 0.00 0.00 69 1013.3
20260507084004 47 158 0.0 6.1 0.00 0.00 0.00 69 1013.4
20260507083507 47 239 1.7 6.1 0.00 0.00 0.00 68 1013.4
20260507083020 47 265 0.9 6.1 0.00 0.00 0.00 69 1013.5
20260507082503 46 107 0.0 6.1 0.00 0.00 0.00 68 1013.5
20260507082010 46 266 0.0 6.1 0.00 0.00 0.00 68 1013.6
20260507081522 47 28 0.9 5.2 0.00 0.00 0.00 67 1013.6
20260507081007 46 346 1.7 5.2 0.00 0.00 0.00 66 1013.7
20260507080506 46 236 0.0 3.5 0.00 0.00 0.00 66 1013.7
20260507080016 46 207 0.0 3.5 0.00 0.00 0.00 65 1013.9
20260507075508 46 218 0.0 2.6 0.00 0.00 0.00 65 1013.9
20260507075004 46 186 0.0 3.5 0.00 0.00 0.00 65 1014.0
20260507074512 46 265 0.0 7.0 0.00 0.00 0.00 64 1014.0
20260507074004 46 285 0.9 7.0 0.00 0.00 0.00 64 1014.0
20260507073508 46 225 0.0 2.6 0.00 0.00 0.00 63 1014.1
20260507073016 46 277 0.9 2.6 0.00 0.00 0.00 63 1014.1
20260507072507 46 251 0.0 3.5 0.00 0.00 0.00 62 1014.2
20260507072008 46 248 0.0 3.5 0.00 0.00 0.00 62 1014.3
20260507071522 46 274 0.0 0.9 0.00 0.00 0.00 61 1014.3
20260507071008 46 195 0.0 2.6 0.00 0.00 0.00 60 1014.3
20260507070504 46 207 0.0 2.6 0.00 0.00 0.00 59 1014.4
20260507070026 46 184 0.0 1.7 0.00 0.00 0.00 60 1014.4
20260507065503 45 250 0.0 0.9 0.00 0.00 0.00 61 1014.6
20260507065006 45 283 0.0 0.9 0.00 0.00 0.00 59 1014.7
20260507064524 46 279 0.0 1.7 0.00 0.00 0.00 58 1014.8
20260507064007 46 279 0.0 1.7 0.00 0.00 0.00 57 1014.8
20260507063508 46 163 0.0 1.7 0.00 0.00 0.00 56 1014.9
20260507063024 46 232 0.0 1.7 0.00 0.00 0.00 56 1014.9
20260507062507 45 229 0.0 1.7 0.00 0.00 0.00 56 1014.9
20260507062007 45 229 0.0 1.7 0.00 0.00 0.00 56 1014.9
20260507061518 44 217 0.0 0.9 0.00 0.00 0.00 58 1015.0
20260507061007 44 294 0.0 0.9 0.00 0.00 0.00 57 1015.0
20260507060506 44 293 0.0 0.0 0.00 0.00 0.00 58 1015.1